Regional Weather Roundup
Issued by NWS

Home | Current Version | Previous Version | Graphics & Text | Print | Product List | Glossary On
Versions: 1 2 3 4 5 6 7 8 9 10 11 12 13 14 15 16 17 18 19 20 21 22 23 24 25 26 27 28 29 30 31 32 33 34 35 36 37 38 39 40 41 42 43 44 45 46 47 48 49 50
000
ASUS45 KCYS 100410
RWRWY

WYOMING REGIONAL WEATHER ROUNDUP
NATIONAL WEATHER SERVICE CHEYENNE WY
900 PM MST FRI DEC 09 2016

NOTE:  "FAIR" INDICATES FEW OR NO CLOUDS BELOW 12,000 FEET
WITH NO SIGNIFICANT WEATHER AND/OR OBSTRUCTIONS TO VISIBILITY.

WYZ001-100500-
YELLOWSTONE NATIONAL PARK

CITY           SKY/WX    TMP DP  RH WIND       PRES   REMARKS
LK YELLOWSTONE   N/A     25  21  85 VRB3      29.92F
W YELLOWSTONE  NOT AVBL

$$
WYZ002>013-054>058-071-098>099-100500-
NORTHERN WYOMING

CITY           SKY/WX    TMP DP  RH WIND       PRES   REMARKS
JACKSON        LGT SNOW  28  27  93 S9        29.97F WCI  20
CODY           MOCLDY    11   3  70 CALM      29.97F
GREYBULL       CLOUDY    12   4  70 S3        30.04F
WORLAND        FAIR      10   6  84 CALM      30.02F
SHERIDAN       LGT SNOW  11   6  81 SE6       30.07F WCI   1
BUFFALO        CLOUDY     7   0  73 SE5       30.01F WCI  -2
GILLETTE       CLOUDY     9   4  80 CALM      30.07F
HULETT         CLOUDY     3  -2  78 CALM      30.12S
NEWCASTLE      FAIR       5   0  78 S12       30.15F WCI -11

$$
WYZ014>020-022>026-101>103-100500-
CENTRAL WYOMING

CITY           SKY/WX    TMP DP  RH WIND       PRES   REMARKS
BIG PINEY      CLOUDY     9   7  92 CALM      30.04S
PINEDALE       CLOUDY    23  23 100 MISG      30.04F
DUBOIS         CLOUDY    30  23  74 NW15      29.90S WCI  19
LANDER         FAIR      11   5  77 VRB3      29.95S
RIVERTON       FAIR      12   5  73 W5        29.95F WCI   4
CASPER         FAIR       2  -2  83 N6        29.98F WCI  -9
DOUGLAS        FAIR      16   9  74 SE14      30.02F WCI   2

$$
WYZ021-027>030-104>119-100500-
SOUTHERN WYOMING

CITY           SKY/WX    TMP DP  RH WIND       PRES   REMARKS
EVANSTON       FAIR      31  24  75 SW15      30.06F WCI  20
KEMMERER         N/A     30  28  93 W9        30.05F WCI  22
FORT BRIDGER   FAIR      33  27  76 CALM      30.08S
ROCK SPRINGS   MOCLDY    33  27  78 SW16      30.06F WCI  23
DIXON          CLOUDY    37  24  58 SW17G23   30.12S WCI  27
RAWLINS        CLOUDY    36  22  56 SW22G31   30.03F WCI  25
SARATOGA       CLOUDY    36  25  64 S15       30.08S WCI  26
LARAMIE        FAIR      34  23  64 W23       30.03F WCI  22
CHEYENNE       MOCLDY    25  21  85 S5        30.08S WCI  19
TORRINGTON     CLOUDY    15   6  67 E13       30.12F WCI   1
PINE BLUFFS    CLOUDY    23  19  86 SW8       30.12F WCI  14

$$



USA.gov is the U.S. government's official web portal to all federal, state and local government web resources and services.